Вернуться в каталог

FENGYUN 1C DEB

LostSSO
NORAD 37722·DEBRIS·🇨🇳 China

Запущен May 10, 1999 с Taiyuan Satellite Launch Center

Loading…

Ближайшие Пролёты (ближайшие 24 часа)

TLE

УстаревшееSource: Space-Track

Эпоха: Dec 15, 2015, 22:25 UTC

1 37722U 99025EMP 15349.93456858  .00003718  00000-0  60635-3 0  9998
2 37722  98.3105  33.9246 0167915  25.5965 335.4079 14.61976061300619

Отслеживайте FENGYUN 1C DEB в реальном времени с AllMySat

Download on the App Store